Cloquet, MN

3:25 PM CST on December 09, 2019 (GMT -0600)
Cloquet Carlton County

Weather History for KCOQ - October, 2019

Change the Weather History Date:

Tuesday, October 15, 2019

  Actual Average Record
Temperature  
Mean Temperature 38 °F -  
Max Temperature 44 °F 51 °F 68 °F (1996)
Min Temperature 33 °F 33 °F 26 °F (2002)
Degree Days  
Heating Degree Days 26    
Moisture  
Dew Point 35 °F    
Average Humidity 83    
Maximum Humidity 93    
Minimum Humidity 61    
Precipitation  
Precipitation 0.00 in - - ()
Sea Level Pressure  
Sea Level Pressure 29.89 in    
Wind  
Wind Speed 4 mph ()    
Max Wind Speed 13 mph    
Max Gust Speed 18 mph    
Visibility 9.9 miles    
Events Rain , Thunderstorm    
Averages and records for this station are not official NWS values.
T = Trace of Precipitation, MM = Missing Value Source: Averaged Metar Reports

Daily Weather History Graph

Daily Weather History Graph

Search for Another Location

Airport or City:

Astronomy

Oct. 15, 2019 Rise Set
Actual Time 7:27 AM CDT 6:23 PM CDT
Civil Twilight 6:56 AM CDT 6:53 PM CDT
Nautical Twilight 6:21 AM CDT 7:28 PM CDT
Astronomical Twilight 5:46 AM CDT 8:03 PM CDT
Moon 7:39 PM CDT (10/15) 9:01 AM CDT (10/15)
Length of Visible Light 11h 56m
Length of Day
10h 55m
Full, 97% of the Moon is Illuminated
Oct 15
Full
Oct 21
Last Quarter
Oct 27
New
Nov 4
First Quarter
Nov 12
Full

Hourly Weather History & Observations

Time (CDT) Temp. Windchill Dew Point Humidity Pressure Visibility Wind Dir Wind Speed Gust Speed Precip Events Conditions
12:15 AM 37.4 °F - 32.0 °F 81% 29.93 in 10.0 mi Calm Calm - N/A   Scattered Clouds
12:35 AM 37.4 °F - 30.2 °F 75% 29.93 in 10.0 mi Calm Calm - N/A   Clear
12:55 AM 35.6 °F - 30.2 °F 81% 29.92 in 10.0 mi Calm Calm - N/A   Clear
12:56 AM 35.6 °F - 30.2 °F 81% 29.92 in 10.0 mi Calm Calm - N/A   Clear
1:15 AM 35.6 °F - 32.0 °F 87% 29.92 in 10.0 mi Calm Calm - N/A   Clear
1:35 AM 33.8 °F 30.8 °F 30.2 °F 87% 29.91 in 10.0 mi North 3.5 mph - N/A   Clear
1:55 AM 33.8 °F 30.8 °F 30.2 °F 87% 29.91 in 10.0 mi North 3.5 mph - N/A   Clear
1:56 AM 33.8 °F 30.8 °F 30.2 °F 87% 29.91 in 10.0 mi North 3.5 mph - N/A   Clear
2:15 AM 33.8 °F - 30.2 °F 87% 29.90 in 10.0 mi Calm Calm - N/A   Clear
2:16 AM 33.8 °F - 30.2 °F 87% 29.90 in 10.0 mi Calm Calm - N/A   Clear
2:35 AM 33.8 °F 30.8 °F 30.2 °F 87% 29.89 in 10.0 mi SE 3.5 mph - N/A   Clear
2:55 AM 33.8 °F 30.8 °F 30.2 °F 87% 29.88 in 10.0 mi East 3.5 mph - N/A   Clear
2:56 AM 33.8 °F - 30.2 °F 87% 29.88 in 10.0 mi Calm Calm - N/A   Clear
3:15 AM 33.8 °F - 30.2 °F 87% 29.88 in 10.0 mi Calm Calm - N/A   Clear
3:16 AM 33.8 °F - 30.2 °F 87% 29.88 in 10.0 mi Calm Calm - N/A   Clear
3:35 AM 33.8 °F - 30.2 °F 87% 29.87 in 10.0 mi Calm Calm - N/A   Clear
3:36 AM 33.8 °F - 30.2 °F 87% 29.87 in 10.0 mi Calm Calm - N/A   Clear
3:55 AM 33.8 °F - 30.2 °F 87% 29.87 in 10.0 mi Calm Calm - N/A   Clear
3:56 AM 33.8 °F - 30.2 °F 87% 29.87 in 10.0 mi Calm Calm - N/A   Clear
4:15 AM 33.8 °F 30.8 °F 30.2 °F 87% 29.85 in 10.0 mi NE 3.5 mph - N/A   Clear
4:16 AM 33.8 °F 30.8 °F 30.2 °F 87% 29.85 in 10.0 mi NE 3.5 mph - N/A   Clear
4:35 AM 35.6 °F 31.7 °F 33.8 °F 93% 29.84 in 10.0 mi ENE 4.6 mph - N/A   Clear
4:36 AM 35.6 °F 31.7 °F 33.8 °F 93% 29.84 in 10.0 mi NE 4.6 mph - N/A   Clear
4:55 AM 37.4 °F 34.9 °F 33.8 °F 87% 29.84 in 10.0 mi ENE 3.5 mph - N/A   Scattered Clouds
5:15 AM 37.4 °F 33.8 °F 33.8 °F 87% 29.83 in 10.0 mi East 4.6 mph - N/A   Mostly Cloudy
5:16 AM 37.4 °F 33.8 °F 33.8 °F 87% 29.83 in 10.0 mi ENE 4.6 mph - N/A   Mostly Cloudy
5:35 AM 37.4 °F 33.8 °F 35.6 °F 93% 29.83 in 10.0 mi ENE 4.6 mph - N/A   Overcast
5:55 AM 37.4 °F 32.8 °F 35.6 °F 93% 29.83 in 10.0 mi ENE 5.8 mph - N/A   Overcast
6:15 AM 39.2 °F - 35.6 °F 87% 29.84 in 10.0 mi Calm Calm - N/A   Overcast
6:16 AM 39.2 °F 37.0 °F 35.6 °F 87% 29.84 in 10.0 mi NE 3.5 mph - N/A   Overcast
6:35 AM 39.2 °F - 35.6 °F 87% 29.85 in 10.0 mi Calm Calm - N/A   Overcast
6:55 AM 39.2 °F 35.9 °F 35.6 °F 87% 29.85 in 10.0 mi NE 4.6 mph - N/A   Overcast
7:15 AM 39.2 °F 35.0 °F 35.6 °F 87% 29.84 in 10.0 mi NNE 5.8 mph - N/A   Overcast
7:35 AM 39.2 °F 34.2 °F 35.6 °F 87% 29.83 in 10.0 mi NE 6.9 mph - N/A   Overcast
7:55 AM 39.2 °F 37.0 °F 35.6 °F 87% 29.83 in 10.0 mi NNE 3.5 mph - N/A Thunderstorm Overcast
7:56 AM 39.2 °F 35.9 °F 35.6 °F 87% 29.84 in 10.0 mi NE 4.6 mph - N/A Thunderstorm Overcast
8:15 AM 39.2 °F 35.9 °F 35.6 °F 87% 29.83 in 10.0 mi NNE 4.6 mph - N/A   Overcast
8:35 AM 39.2 °F 35.9 °F 37.4 °F 93% 29.83 in 10.0 mi NNE 4.6 mph - N/A   Overcast
8:36 AM 39.2 °F 37.0 °F 37.4 °F 93% 29.83 in 10.0 mi North 3.5 mph - N/A   Overcast
8:55 AM 39.2 °F 35.0 °F 37.4 °F 93% 29.82 in 10.0 mi NNE 5.8 mph - N/A   Overcast
9:15 AM 41.0 °F 38.0 °F 37.4 °F 87% 29.82 in 10.0 mi NNE 4.6 mph - N/A   Overcast
9:16 AM 41.0 °F 38.0 °F 37.4 °F 87% 29.82 in 10.0 mi NNE 4.6 mph - N/A   Overcast
9:35 AM 41.0 °F 36.4 °F 37.4 °F 87% 29.82 in 10.0 mi NNE 6.9 mph - N/A   Overcast
9:36 AM 41.0 °F 36.4 °F 37.4 °F 87% 29.82 in 10.0 mi NNE 6.9 mph - N/A   Overcast
9:55 AM 42.8 °F 39.3 °F 37.4 °F 81% 29.83 in 10.0 mi NE 5.8 mph - N/A   Mostly Cloudy
9:56 AM 42.8 °F 39.3 °F 37.4 °F 81% 29.83 in 10.0 mi ENE 5.8 mph - N/A   Mostly Cloudy
10:15 AM 42.8 °F 38.6 °F 37.4 °F 81% 29.83 in 10.0 mi NE 6.9 mph - N/A   Scattered Clouds
10:35 AM 42.8 °F 38.6 °F 35.6 °F 76% 29.84 in 10.0 mi NNE 6.9 mph - N/A   Mostly Cloudy
10:36 AM 42.8 °F 40.1 °F 35.6 °F 76% 29.84 in 10.0 mi NE 4.6 mph - N/A   Mostly Cloudy
10:55 AM 42.8 °F 39.3 °F 37.4 °F 81% 29.84 in 10.0 mi NE 5.8 mph - N/A   Overcast
10:56 AM 42.8 °F 39.3 °F 37.4 °F 81% 29.84 in 10.0 mi NE 5.8 mph - N/A   Overcast
11:15 AM 42.8 °F 38.6 °F 35.6 °F 76% 29.84 in 10.0 mi NE 6.9 mph - N/A   Overcast
11:16 AM 42.8 °F 38.6 °F 35.6 °F 76% 29.84 in 10.0 mi ENE 6.9 mph - N/A   Overcast
11:35 AM 44.6 °F 39.2 °F 35.6 °F 71% 29.84 in 10.0 mi NE 10.4 mph - N/A   Overcast
11:55 AM 42.8 °F 38.0 °F 33.8 °F 70% 29.84 in 10.0 mi North 8.1 mph - N/A   Overcast
11:56 AM 42.8 °F 39.3 °F 33.8 °F 70% 29.84 in 10.0 mi NNE 5.8 mph - N/A   Overcast
12:15 PM 42.8 °F 37.0 °F 33.8 °F 70% 29.85 in 10.0 mi NE 10.4 mph - N/A   Overcast
12:35 PM 44.6 °F 41.4 °F 33.8 °F 66% 29.85 in 10.0 mi North 5.8 mph - N/A   Overcast
12:36 PM 44.6 °F 40.7 °F 33.8 °F 66% 29.85 in 10.0 mi North 6.9 mph - N/A   Overcast
12:55 PM 44.6 °F 42.2 °F 32.0 °F 61% 29.85 in 10.0 mi NNE 4.6 mph - N/A   Overcast
1:15 PM 44.6 °F 40.2 °F 32.0 °F 61% 29.85 in 10.0 mi NE 8.1 mph - N/A   Overcast
1:35 PM 44.6 °F 41.4 °F 32.0 °F 61% 29.85 in 10.0 mi NE 5.8 mph - N/A   Overcast
1:55 PM 44.6 °F 43.1 °F 33.8 °F 66% 29.85 in 10.0 mi NE 3.5 mph - N/A   Overcast
1:56 PM 44.6 °F 43.1 °F 33.8 °F 66% 29.85 in 10.0 mi NNE 3.5 mph - N/A   Overcast
2:35 PM 44.6 °F 43.1 °F 33.8 °F 66% 29.85 in 10.0 mi North 3.5 mph - N/A   Light Drizzle
2:55 PM 44.6 °F 43.1 °F 33.8 °F 66% 29.86 in 10.0 mi North 3.5 mph - N/A Rain Light Rain
3:15 PM 44.6 °F 40.7 °F 35.6 °F 71% 29.86 in 10.0 mi North 6.9 mph - N/A   Light Drizzle
3:35 PM 42.8 °F 38.6 °F 35.6 °F 76% 29.87 in 10.0 mi North 6.9 mph 17.3 mph N/A Rain Light Rain
3:55 PM 42.8 °F 38.6 °F 35.6 °F 76% 29.88 in 10.0 mi NW 6.9 mph - N/A Rain Light Rain
4:15 PM 42.8 °F 38.6 °F 37.4 °F 81% 29.89 in 7.0 mi North 6.9 mph - N/A Rain Light Rain
4:35 PM 42.8 °F 38.6 °F 37.4 °F 81% 29.90 in 10.0 mi NNW 6.9 mph - N/A Rain Light Rain
4:36 PM 42.8 °F 38.6 °F 37.4 °F 81% 29.90 in 10.0 mi NNW 6.9 mph - N/A Rain Light Rain
4:55 PM 42.8 °F 37.0 °F 37.4 °F 81% 29.90 in 10.0 mi NNW 10.4 mph 18.4 mph N/A Rain Light Rain
5:15 PM 42.8 °F 37.5 °F 37.4 °F 81% 29.91 in 10.0 mi NW 9.2 mph - N/A   Light Drizzle
5:35 PM 42.8 °F 37.5 °F 37.4 °F 81% 29.91 in 10.0 mi NNW 9.2 mph - N/A Rain Light Rain
5:36 PM 41.0 °F 35.2 °F 37.4 °F 87% 29.91 in 10.0 mi NNW 9.2 mph - N/A Rain Light Rain
5:55 PM 41.0 °F 34.7 °F 35.6 °F 81% 29.92 in 10.0 mi NNW 10.4 mph 17.3 mph N/A   Light Drizzle
6:15 PM 41.0 °F 35.2 °F 35.6 °F 81% 29.93 in 10.0 mi NNW 9.2 mph - N/A Rain Light Rain
6:16 PM 41.0 °F 34.7 °F 35.6 °F 81% 29.93 in 10.0 mi NNW 10.4 mph - N/A Rain Light Rain
6:35 PM 41.0 °F 35.2 °F 35.6 °F 81% 29.94 in 10.0 mi NW 9.2 mph - N/A Rain Light Rain
6:36 PM 41.0 °F 35.2 °F 35.6 °F 81% 29.94 in 10.0 mi NW 9.2 mph - N/A Rain Light Rain
6:55 PM 39.2 °F 31.6 °F 35.6 °F 87% 29.94 in 10.0 mi NNW 12.7 mph 16.1 mph N/A   Light Drizzle
7:15 PM 39.2 °F 33.6 °F 35.6 °F 87% 29.95 in 10.0 mi NW 8.1 mph - N/A Rain Light Rain
7:16 PM 39.2 °F 33.0 °F 35.6 °F 87% 29.95 in 10.0 mi NW 9.2 mph - N/A Rain Light Rain
7:35 PM 39.2 °F 33.0 °F 35.6 °F 87% 29.96 in 10.0 mi NNW 9.2 mph - N/A   Overcast
7:55 PM 39.2 °F 32.5 °F 35.6 °F 87% 29.96 in 10.0 mi NNW 10.4 mph - N/A   Overcast
7:56 PM 39.2 °F 33.0 °F 35.6 °F 87% 29.96 in 10.0 mi NNW 9.2 mph - N/A   Overcast
8:15 PM 39.2 °F 33.0 °F 35.6 °F 87% 29.97 in 10.0 mi NW 9.2 mph - N/A   Overcast
8:16 PM 39.2 °F 33.0 °F 35.6 °F 87% 29.97 in 10.0 mi NW 9.2 mph - N/A   Overcast
8:35 PM 39.2 °F 33.0 °F 35.6 °F 87% 29.97 in 10.0 mi NW 9.2 mph - N/A   Overcast
8:55 PM 39.2 °F 33.0 °F 35.6 °F 87% 29.97 in 10.0 mi NW 9.2 mph - N/A   Overcast
9:15 PM 41.0 °F 35.2 °F 35.6 °F 81% 29.98 in 10.0 mi NW 9.2 mph - N/A   Overcast
9:16 PM 41.0 °F 35.8 °F 35.6 °F 81% 29.98 in 10.0 mi WNW 8.1 mph - N/A   Overcast
9:35 PM 41.0 °F 36.4 °F 35.6 °F 81% 29.98 in 10.0 mi NW 6.9 mph - N/A Rain Light Rain
9:55 PM 41.0 °F 35.2 °F 35.6 °F 81% 29.99 in 10.0 mi WNW 9.2 mph - N/A   Overcast
9:56 PM 41.0 °F 34.3 °F 35.6 °F 81% 29.99 in 10.0 mi NW 11.5 mph - N/A   Overcast
10:15 PM 39.2 °F 33.6 °F 37.4 °F 93% 29.99 in 10.0 mi NW 8.1 mph - N/A   Overcast
10:55 PM 39.2 °F 35.9 °F 37.4 °F 93% 29.99 in 5.0 mi WNW 4.6 mph - N/A   Overcast
10:56 PM 39.2 °F 35.9 °F 37.4 °F 93% 29.99 in 5.0 mi NW 4.6 mph - N/A   Overcast
11:15 PM 39.2 °F 34.2 °F 37.4 °F 93% 30.00 in 10.0 mi WNW 6.9 mph - N/A   Overcast
11:16 PM 39.2 °F 34.2 °F 37.4 °F 93% 30.00 in 10.0 mi WNW 6.9 mph - N/A   Overcast
11:35 PM 39.2 °F 33.6 °F 37.4 °F 93% 30.00 in 10.0 mi NW 8.1 mph - N/A   Overcast
11:36 PM 39.2 °F 33.6 °F 37.4 °F 93% 30.00 in 10.0 mi WNW 8.1 mph - N/A   Overcast
11:55 PM 41.0 °F 35.8 °F 37.4 °F 87% 29.99 in 10.0 mi NW 8.1 mph - N/A   Overcast